Morrisville, VT

9:13 PM EST on November 11, 2019 (GMT -0500)
Morrisville Stowe State

Weather History for KMVL - September, 2019

Change the Weather History Date:

Thursday, September 26, 2019

  Actual Average Record
Temperature  
Mean Temperature 59 °F 54 °F  
Max Temperature 66 °F 65 °F 88 °F (2017)
Min Temperature 51 °F 42 °F 33 °F (2016)
Degree Days  
Heating Degree Days 6 12  
Month to date heating degree days 177 187  
Since 1 July heating degree days 242 282  
Cooling Degree Days 0 0  
Month to date cooling degree days 11 13  
Year to date cooling degree days 254 260  
Growing Degree Days 9 (Base 50)    
Moisture  
Dew Point 53 °F    
Average Humidity 91    
Maximum Humidity 97    
Minimum Humidity 68    
Precipitation  
Precipitation 0.29 in 0.12 in 0.93 in (2005)
Month to date precipitation 3.21 2.91  
Year to date precipitation 30.44 26.67  
Sea Level Pressure  
Sea Level Pressure 29.77 in    
Wind  
Wind Speed 2 mph ()    
Max Wind Speed 12 mph    
Max Gust Speed 19 mph    
Visibility 8.8 miles    
Events Rain    
T = Trace of Precipitation, MM = Missing Value Source: Averaged Metar Reports

Daily Weather History Graph

Daily Weather History Graph

Search for Another Location

Airport or City:

Astronomy

Sep. 26, 2019 Rise Set
Actual Time 6:42 AM EDT 6:40 PM EDT
Civil Twilight 6:12 AM EDT 7:09 PM EDT
Nautical Twilight 5:38 AM EDT 7:43 PM EDT
Astronomical Twilight 5:04 AM EDT 8:18 PM EDT
Moon 3:34 AM EDT (9/26) 6:00 PM EDT (9/26)
Length of Visible Light 12h 56m
Length of Day
11h 58m
Waning Crescent, 7% of the Moon is Illuminated
Sep 26
Waning Crescent
Sep 28
New
Oct 5
First Quarter
Oct 13
Full
Oct 21
Last Quarter

Hourly Weather History & Observations

Time (EDT) Temp. Dew Point Humidity Pressure Visibility Wind Dir Wind Speed Gust Speed Precip Events Conditions
12:54 AM 52.0 °F 50.0 °F 93% 29.80 in 10.0 mi Calm Calm - N/A   Overcast
1:54 AM 51.1 °F 50.0 °F 96% 29.78 in 10.0 mi Calm Calm - N/A   Mostly Cloudy
2:54 AM 52.0 °F 51.1 °F 97% 29.78 in 10.0 mi Calm Calm - N/A   Overcast
3:54 AM 53.1 °F 51.1 °F 93% 29.76 in 10.0 mi Calm Calm - N/A   Overcast
4:54 AM 53.1 °F 51.1 °F 93% 29.74 in 10.0 mi Calm Calm - N/A   Overcast
5:54 AM 51.1 °F 50.0 °F 96% 29.75 in 10.0 mi Calm Calm - N/A   Clear
6:54 AM 51.1 °F 50.0 °F 96% 29.74 in 10.0 mi Calm Calm - N/A   Partly Cloudy
7:54 AM 55.9 °F 54.0 °F 93% 29.73 in 10.0 mi Calm Calm - N/A   Mostly Cloudy
8:54 AM 60.1 °F 55.9 °F 86% 29.73 in 10.0 mi Calm Calm - N/A   Partly Cloudy
9:54 AM 64.9 °F 55.9 °F 73% 29.72 in 10.0 mi Calm Calm - N/A   Mostly Cloudy
10:54 AM 66.9 °F 55.9 °F 68% 29.66 in 10.0 mi South 4.6 mph - N/A   Mostly Cloudy
11:54 AM 62.1 °F 57.9 °F 86% 29.71 in 10.0 mi West 4.6 mph - 0.03 in Rain Light Rain
12:54 PM 61.0 °F 57.9 °F 90% 29.72 in 10.0 mi SSW 9.2 mph - 0.11 in Rain Light Rain
1:54 PM 60.1 °F 57.0 °F 90% 29.74 in 6.0 mi Variable 3.5 mph - 0.05 in Rain Rain
2:54 PM 59.0 °F 55.9 °F 90% 29.74 in 10.0 mi ESE 4.6 mph - 0.05 in Rain Light Rain
3:54 PM 57.9 °F 57.0 °F 97% 29.74 in 10.0 mi South 3.5 mph - 0.02 in Rain Light Rain
4:54 PM 57.9 °F 55.0 °F 90% 29.73 in 10.0 mi SW 4.6 mph - 0.00 in   Mostly Cloudy
5:54 PM 57.9 °F 55.9 °F 93% 29.76 in 10.0 mi South 3.5 mph - N/A   Scattered Clouds
6:54 PM 54.0 °F 53.1 °F 97% 29.77 in 10.0 mi Calm Calm - N/A   Partly Cloudy
7:29 PM 51.1 °F 50.0 °F 96% 29.78 in 0.8 mi South 4.6 mph - N/A   Mist
7:34 PM 52.0 °F 51.1 °F 97% 29.78 in 1.2 mi SSW 3.5 mph - N/A   Scattered Clouds
7:38 PM 52.0 °F 51.1 °F 97% 29.79 in 3.0 mi SSW 4.6 mph - N/A   Scattered Clouds
7:54 PM 53.1 °F 52.0 °F 96% 29.80 in 10.0 mi Calm Calm - N/A   Scattered Clouds
8:54 PM 53.1 °F 52.0 °F 96% 29.82 in 7.0 mi Calm Calm - 0.03 in Rain Light Rain
9:54 PM 55.0 °F 52.0 °F 89% 29.85 in 10.0 mi Variable 4.6 mph - 0.00 in   Mostly Cloudy
10:54 PM 54.0 °F 50.0 °F 86% 29.88 in 10.0 mi WSW 6.9 mph - N/A   Overcast
11:54 PM 55.0 °F 48.9 °F 80% 29.91 in 10.0 mi NW 4.6 mph - N/A   Overcast